Regional Weather Roundup
Issued by NWS Portland, ME

Current Version | Previous Version | Text Only | Print | Product List | Glossary On
Versions: 1 2 3 4 5 6 7 8 9 10 11 12 13 14 15 16 17 18 19 20 21 22 23 24 25 26 27 28 29 30 31 32 33 34 35 36 37 38 39 40 41 42 43 44 45 46 47 48 49 50
000 ASUS41 KGYX 240010 RWRGYX WEATHER ROUNDUP FOR MAINE AND NEW HAMPSHIRE NATIONAL WEATHER SERVICE GRAY ME 800 PM EDT TUE OCT 23 2018 MEZ002-005-006-010-012-015-018-020-021-024-026-027-029-240100- MAINE CITY SKY/WX TMP DP RH WIND PRES REMARKS PORTLAND RAIN 50 48 93 SE20G28 29.92F 6HR MIN TEMP: 47; 6HR MAX TEMP: 52; 6HR PCP: 0.09; SANFORD RAIN 40 38 93 NW13G20 29.94S BAR HARBOR FAIR 43 40 89 E7 30.04F WISCASSET LGT RAIN 45 44 97 VRB5 29.98F 6HR MIN TEMP: 45; 6HR MAX TEMP: 51; 6HR PCP: 0.04; ROCKLAND CLOUDY 51 44 77 E15G23 29.98F FRYEBURG RAIN 37 36 96 NW5 29.99S 6HR MIN TEMP: 37; 6HR MAX TEMP: 44; 6HR PCP: 0.19; LEWISTONAUBURN RAIN 39 37 92 NE15 29.96F AUGUSTA CLOUDY 37 35 92 N9 30.01F 6HR MIN TEMP: 37; 6HR MAX TEMP: 45; 6HR PCP: 0.01; WATERVILLE CLOUDY 36 34 92 NE10 30.00F BANGOR MOCLDY 36 33 89 N12 30.05F 6HR MIN TEMP: 36; 6HR MAX TEMP: 41; GREENVILLE N/A 33 31 92 E9 30.02F 6HR MIN TEMP: 32; 6HR MAX TEMP: 34; MILLINOCKET MOCLDY 33 30 88 NE7 30.13F 6HR MIN TEMP: 33; 6HR MAX TEMP: 33; 6HR PCP: TRACE; HOULTON CLOUDY 32 31 96 NE3 30.14F 6HR MIN TEMP: 32; 6HR MAX TEMP: 36; 6HR PCP: TRACE; PRESQUE ISLE CLOUDY 34 28 79 CALM 30.17F 6HR MIN TEMP: 34; 6HR MAX TEMP: 39; 6HR PCP: TRACE; FRENCHVILLE MOCLDY 35 20 54 SE5 30.15S 6HR MIN TEMP: 34; 6HR MAX TEMP: 41; CARIBOU CLOUDY 36 26 67 E5 30.16F 6HR MIN TEMP: 36; 6HR MAX TEMP: 40; $$ NHZ002-005-008-009-011-012-014-240100- NEW HAMPSHIRE CITY SKY/WX TMP DP RH WIND PRES REMARKS PORTSMOUTH HVY RAIN 42 40 93 N13 29.90F ROCHESTER RAIN 39 39 100 NE7 29.93F FOG 6HR MIN TEMP: 38; 6HR MAX TEMP: 52; 6HR PCP: 0.60; NASHUA MOCLDY 43 43 100 NW6 29.91F FOG MANCHESTER MOCLDY 43 40 89 N7 29.91R 6HR MIN TEMP: 43; 6HR MAX TEMP: 56; 6HR PCP: 0.54; CONCORD FAIR 36 35 96 CALM 29.93F FOG 6HR MIN TEMP: 38; 6HR MAX TEMP: 50; 6HR PCP: 0.51; LACONIA MOCLDY 41 39 93 S6 29.94R PLYMOUTH FAIR 38 37 96 CALM 29.94S BERLIN LGT RAIN 34 33 96 N3 29.98F FOG 6HR MIN TEMP: 33; 6HR MAX TEMP: 46; 6HR PCP: 0.52; WHITEFIELD LGT RAIN 40 36 86 SE13G22 29.93F 6HR MIN TEMP: 37; 6HR MAX TEMP: 47; 6HR PCP: 0.26; JAFFREY FOG 40 40 100 VRB5 29.89F VSB 1/2 6HR MIN TEMP: 39; 6HR MAX TEMP: 52; 6HR PCP: 0.31; KEENE LGT RAIN 45 43 93 NE7 29.91S FOG LEBANON MOCLDY 41 37 86 N3 29.92F 6HR MIN TEMP: 39; 6HR MAX TEMP: 46; 6HR PCP: 0.15; MT WASHINGTON HVY SNOW 23 23 100 SE35 N/A VSB 0 WCI 4 6HR MIN TEMP: 23; 6HR MAX TEMP: 24; 6HR PCP: 0.81; $$ VTZ005-007-008-240100- VERMONT CITY SKY/WX TMP DP RH WIND PRES REMARKS ST JOHNSBURY N/A 40 37 89 MISG 29.93F MONTPELIER CLOUDY 39 39 100 CALM 29.96S BURLINGTON CLOUDY 42 39 89 NW5 29.95S $$ MAZ007-012-024-CTZ003-RIZ002-NYZ038-NYZ072-240100- SOUTHERN NEW ENGLAND AND NY CITY SKY/WX TMP DP RH WIND PRES REMARKS BOSTON MOCLDY 49 45 86 NE8 29.90F WORCESTER FAIR 44 42 93 W5 29.89R NANTUCKET FAIR 58 53 84 SW14 29.90F PROVIDENCE FAIR 52 47 83 SW7 29.89S HARTFORD MOCLDY 49 42 77 W10 29.92F ALBANY CLOUDY 47 41 80 W6 29.95R NEW YORK CITY FAIR 56 39 53 NW16G25 29.97R $$ ANZ081-ANZ082-ANZ150-NHZ014-MEZ023>029-240100- COASTAL MARINE OBSERVATIONS STATION/POSITION TIME TEMP WIND PRES WAVE AIR SEA DIR/SP/G HT/PER (UTC) (F) (DEG/KT/KT) (MB) (FT/S) MOUNT DESERT ROC 0000 51 80/ 25/ 27 1015.8F MATINICUS ROCK 2300 51 90/ 28/ 29 1014.9F ISLE OF SHOALS 2300 51 110/ 18/ 19 1012.0S JEFFREYS LEDGE 2336 54 N/A 3/ 4 $$ .............KEY.............. WCI - WIND CHILL TC - TEMPERATURE IN CELSIUS VSB - VISIBILITY IN MILES HX - HEAT INDEX FAIR- INDICATES FEW OR NO CLOUDS BELOW 12,000 FT, WITH NO SIGNIFICANT WEATHER AND/OR OBSTRUCTIONS TO VISIBILITY.

USA.gov is the U.S. government's official web portal to all federal, state and local government web resources and services.